Погода в Маковом

Россия / Астраханская область     46°10′10″N   48°38′41″E
темп.,
°C
ветер,
м/с
пор.,
м/с
влажн.,
%
обл.,
%
осадки,
мм/ч
давл.,
гПа
погр.,
м
7 мая, пт
пт701:00+12вюв11515 0.0 101710
04:00+11всв11515 0.0 101610
07:00+14всв124499 0.0 101797
10:00+19вюв2330100 0.0 10181551
13:00+21ююв4326100 0.0 10171947
16:00+21ю542649 0.0 10171926
19:00+19ю563047 0.0 1017532
22:00+14юз49474 0.0 1018186
8 мая, сб
сб801:00+13юз38605 0.0 1018138
04:00+13зюз36652 0.0 1018100
07:00+15юз35581 0.0 1018179
10:00+22ююз453922 0.0 10181185
13:00+25ю65345 0.0 10172288
16:00+24ю75330 0.0 10161537
19:00+20ю563898 0.0 1016480
22:00+15ю3658100 0.0 1016141
9 мая, вс
вс901:00+14ю345686 0.0 101568
04:00+15ююв3456100 0.0 101460
07:00+18юв495524 0.0 1014518
10:00+22юв81040100 0.0 1013963
13:00+23ююв81137100 0.0 10121149
16:00+22ююв81243100 0.0 10111167
19:00+20юв5854100 0.0 1011588
22:00+17вюв2264100 0.0 101117
10 мая, пн
пн1001:00+18зюз5762100 0.0 1010326
04:00+12зсз81283100 0.0 1011593
07:00+10зсз81479100 0.6 1013631
10:00+9з81282100 2.9 1015808
13:00+10зсз71078100 1.0 1016929
16:00+11зсз51065100 1.6 10161215
19:00+14зсз35475 0.0 1017871
22:00+10зюз23621 0.0 101825
11 мая, вт
вт1101:00+9ююз22643 0.0 101917
04:00+9з22640 0.0 101914
07:00+11ссв336124 0.0 1020146
10:00+16св334395 0.0 10211091
13:00+19всв453681 0.1 10202402
16:00+18св143496 0.1 10181931
19:00+16юв4449100 0.0 1018676
22:00+13в226855 0.0 101822